Location: Ward Pound Ridge Reservation
(41.2500°N, 73.6000°W)
Time: 07:20:14
(UTC-04:00)

Tiangong 1 - Pass Details

Date: 12 October 2017
Orbit: 292 x 319 km, 42.8° (Epoch: 24 October)

Event Time Altitude Azimuth Distance (km) Brightness Sun altitude
Rises 19:43:00 0° 283° (WNW) 2,041 6.4 -16.8°
Reaches altitude 10° 19:45:00 10° 283° (WNW) 1,205 4.9 -17.2°
Enters shadow 19:47:37 83° 262° (W) 315 0.6 -17.7°
